Location: Castelbiague
(43.0361°N, 0.9246°E)
Time: 12:15:07
(UTC+00:00)

Meteor 1-4 Rocket - Pass Details

Date: 21 October 2021
Orbit: 446 x 496 km, 81.2° (Epoch: 29 November)

Event Time Altitude Azimuth Distance (km) Brightness Sun altitude
Rises 18:19:31 0° 170° (S) 2,480 6.1 -14.5°
Reaches altitude 10° 18:21:42 10° 161° (SSE) 1,602 5.0 -14.9°
Maximum altitude 18:24:55 35° 94° (E) 761 3.0 -15.5°
Enters shadow 18:25:23 33° 75° (ENE) 788 3.1 -15.6°
